Location: McCloud Nature Park
(39.8272°N, 86.6824°W)
Time: 23:50:29
(UTC-05:00)

Amateur Radio Satellites - All Passes

Search period start: 23 July 2017 23:20
Search period end: 24 July 2017 23:20
Location: McCloud Nature Park, 39.8272°N, 86.6824°W

Satellite Date Start Highest point End Downlink Frequencies (MHz)
Time Altitude Azimuth
PRISM 23 Jul 23:22:03 23:26:04 47° 287° (WNW) 23:30:03 437.425
ESTCUBE 1 23 Jul 23:25:40 23:30:07 82° 78° (ENE) 23:34:37 437.505/2401.250
POLYITAN 1 23 Jul 23:39:33 23:42:01 15° 92° (E) 23:44:28 437.675
DUCHIFAT 1 23 Jul 23:40:08 23:41:39 12° 91° (E) 23:43:11 145.980
TIGRISAT 23 Jul 23:42:20 23:45:58 27° 291° (WNW) 23:49:33 435.000
SPROUT 23 Jul 23:44:16 23:48:03 31° 70° (ENE) 23:51:51 437.525
AIST 2D 23 Jul 23:49:26 23:52:49 46° 99° (E) 23:56:11 435.315
QB50P2 23 Jul 23:51:45 23:55:08 23° 95° (E) 23:58:29 145.880/145.840
EO-79 24 Jul 00:04:05 00:07:46 29° 96° (E) 00:11:26 145.935-145.965
NANOSAT C BR1 24 Jul 00:05:10 00:08:44 26° 96° (E) 00:12:17 145.865
ISS 24 Jul 00:11:28 00:12:39 11° 352° (N) 00:13:50 437.550
VELOX 1 24 Jul 00:17:42 00:22:04 65° 75° (ENE) 00:26:29 145.980
50 SAT 24 Jul 00:24:07 00:26:59 26° 71° (ENE) 00:29:53 437.505
M-CUBED/EXP-1 PRIME 24 Jul 00:27:55 00:31:46 27° 296° (WNW) 00:35:39 437.505
DX 1 24 Jul 00:28:39 00:32:16 26° 68° (ENE) 00:35:54 434.975-435.025
FO-29 24 Jul 00:39:31 00:42:20 13° 308° (NW) 00:45:03 435.910
Tancredo 1 24 Jul 00:56:09 00:56:34 10° 11° (N) 00:56:59 437.200
nSIGHT-1 24 Jul 00:56:11 00:56:46 10° 1° (N) 00:57:19 .
Oscar 19 24 Jul 01:00:00 01:02:04 12° 90° (E) 01:04:10 437.125/150
O/OREOS (USA 219) 24 Jul 01:11:54 01:16:13 45° 64° (ENE) 01:20:33 437.305
UKube-1 24 Jul 01:13:30 01:17:42 53° 73° (ENE) 01:21:56 .
DUCHIFAT 1 24 Jul 01:13:33 01:17:38 53° 286° (WNW) 01:21:40 145.980
POLYITAN 1 24 Jul 01:14:01 01:17:59 41° 288° (WNW) 01:21:55 437.675
Gurwin Techsat 1B 24 Jul 01:15:33 01:16:54 11° 89° (E) 01:18:15 435.225
SPROUT 24 Jul 01:20:40 01:23:58 21° 266° (W) 01:27:17 437.525
QB50P2 24 Jul 01:27:17 01:30:52 27° 291° (WNW) 01:34:26 145.880/145.840
RS-15 24 Jul 01:31:39 01:43:49 89° 243° (WSW) 01:55:16 29.354- 29.394
EO-79 24 Jul 01:40:05 01:43:22 22° 292° (WNW) 01:46:38 145.935-145.965
NANOSAT C BR1 24 Jul 01:40:56 01:44:19 24° 292° (WNW) 01:47:40 145.865
BUGSAT 1 24 Jul 01:47:49 01:51:56 79° 283° (WNW) 01:55:58 437.445
ISS 24 Jul 01:48:43 01:50:15 13° 12° (NNE) 01:51:49 437.550
MOZHAYETS 4 24 Jul 01:54:38 01:55:38 11° 61° (ENE) 01:56:38
50 SAT 24 Jul 01:57:40 01:59:44 15° 266° (W) 02:01:48 437.505
VELOX 1 24 Jul 01:57:53 01:58:56 11° 270° (W) 02:00:00 145.980
DX 1 24 Jul 02:04:40 02:08:21 27° 264° (W) 02:12:04 434.975-435.025
BEESAT 24 Jul 02:15:51 02:19:49 27° 67° (ENE) 02:23:48 436.000
ITUPSAT 1 24 Jul 02:27:46 02:32:04 34° 69° (ENE) 02:36:23 437.325
Tancredo 1 24 Jul 02:30:01 02:32:42 30° 30° (NNE) 02:35:23 437.200
nSIGHT-1 24 Jul 02:31:48 02:34:10 19° 21° (NNE) 02:36:33 .
Oscar 19 24 Jul 02:36:44 02:41:54 74° 286° (WNW) 02:47:03 437.125/150
Gurwin Techsat 1B 24 Jul 02:52:07 02:57:28 85° 285° (WNW) 03:02:47 435.225
UKube-1 24 Jul 02:52:07 02:54:01 13° 268° (W) 02:55:56 .
O/OREOS (USA 219) 24 Jul 02:52:29 02:55:13 16° 260° (W) 02:57:57 437.305
ISS 24 Jul 03:24:20 03:27:26 39° 31° (NNE) 03:30:32 437.550
MOZHAYETS 4 24 Jul 03:27:32 03:32:07 79° 259° (WSW) 03:36:43
AO-7 24 Jul 03:35:37 03:43:10 36° 98° (E) 03:50:37 .
RS-15 24 Jul 03:46:20 03:54:27 22° 261° (W) 04:02:20 29.354- 29.394
BEESAT 24 Jul 03:53:14 03:57:27 31° 263° (W) 04:01:42 436.000
CUBESAT XI-V 24 Jul 03:58:57 04:03:14 41° 72° (ENE) 04:07:33 437.345
Tancredo 1 24 Jul 04:05:34 04:08:02 24° 226° (SW) 04:10:29 437.200
ITUPSAT 1 24 Jul 04:06:04 04:09:55 24° 265° (W) 04:13:48 437.325
PCSat 24 Jul 04:06:22 04:09:13 14° 103° (ESE) 04:12:04 145.827
nSIGHT-1 24 Jul 04:07:40 04:10:53 76° 219° (SW) 04:14:07 .
KKS-1 24 Jul 04:18:10 04:22:17 37° 71° (ENE) 04:26:26 437.445
ITAMSAT 1 24 Jul 04:25:24 04:30:38 86° 102° (ESE) 04:35:49 435.822/435.867
Gurwin Techsat 1B 24 Jul 04:35:03 04:36:34 11° 302° (WNW) 04:38:04 435.225
STARS 24 Jul 04:51:32 04:55:34 36° 70° (ENE) 04:59:37 437.465
YUBILEINY 24 Jul 04:53:33 05:00:26 25° 67° (ENE) 05:07:13 435.215
ISS 24 Jul 05:01:10 05:03:45 22° 227° (SW) 05:06:18 437.550
AO-7 24 Jul 05:28:06 05:36:04 50° 296° (WNW) 05:43:58 .
DOVE 4 24 Jul 05:31:48 05:36:18 28° 94° (E) 05:40:39 437.250
CUBESAT XI-V 24 Jul 05:37:36 05:40:46 18° 267° (W) 05:43:56 437.345
PCSat 24 Jul 05:46:32 05:51:56 72° 299° (WNW) 05:57:23 145.827
XW-2B 24 Jul 05:48:36 05:49:12 10° 91° (E) 05:49:49 145.730 - 145.750
KKS-1 24 Jul 05:55:44 05:58:57 19° 266° (W) 06:02:11 437.445
XW-2C 24 Jul 06:04:07 06:06:39 17° 94° (E) 06:09:12 145.795 - 145.815
CUTE-I 24 Jul 06:05:13 06:09:01 19° 93° (E) 06:12:46 437.470
ITAMSAT 1 24 Jul 06:07:17 06:09:20 12° 301° (WNW) 06:11:22 435.822/435.867
NUDT-PHONESAT 24 Jul 06:16:37 06:19:09 17° 94° (E) 06:21:40 437.300
STRAND 1 24 Jul 06:19:31 06:23:23 22° 65° (ENE) 06:27:16 437.568
LilacSat-2 24 Jul 06:25:22 06:28:50 33° 98° (E) 06:32:17 437.200
STARS 24 Jul 06:28:43 06:31:59 20° 266° (W) 06:35:16 437.465
KAITUO 1B 24 Jul 06:28:44 06:31:54 26° 96° (E) 06:35:02 145.475/437.950
XW-2F 24 Jul 06:42:02 06:45:42 49° 100° (E) 06:49:20 145.980 - 146.000
YUBILEINY 24 Jul 06:49:18 06:58:00 70° 267° (W) 07:06:37 435.215
SO-50 24 Jul 06:50:23 06:54:55 88° 123° (ESE) 06:59:28 436.795
DOVE 4 24 Jul 07:09:12 07:13:57 35° 291° (WNW) 07:18:33 437.250
XW-2D 24 Jul 07:09:55 07:13:38 63° 284° (WNW) 07:17:21 145.860 - 145.880
XW-2B 24 Jul 07:20:01 07:23:39 48° 286° (WNW) 07:27:17 145.730 - 145.750
FO-29 24 Jul 07:22:18 07:24:26 11° 50° (NE) 07:26:34 435.910
AO-7 24 Jul 07:24:55 07:26:50 11° 317° (NW) 07:28:44 .
CUTE 1.7 + AOD 2 24 Jul 07:33:13 07:37:03 32° 97° (E) 07:40:53 437.475
PCSat 24 Jul 07:33:50 07:36:18 13° 320° (NW) 07:38:47 145.827
XW-2C 24 Jul 07:37:36 07:40:52 29° 289° (WNW) 07:44:09 145.795 - 145.815
CUTE-I 24 Jul 07:44:08 07:49:19 51° 289° (WNW) 07:54:28 437.470
HO-68 24 Jul 07:45:32 07:52:26 49° 100° (E) 07:59:17 435.675
SEEDS 24 Jul 07:47:40 07:51:23 29° 96° (E) 07:55:05 437.485
NUDT-PHONESAT 24 Jul 07:49:54 07:53:02 27° 289° (WNW) 07:56:10 437.300
XW-2A 24 Jul 07:51:27 07:54:21 27° 97° (E) 07:57:15 145.665 - 145.685
STRAND 1 24 Jul 07:57:19 08:02:14 45° 261° (W) 08:07:10 437.568
LilacSat-2 24 Jul 08:00:31 08:02:49 16° 293° (WNW) 08:05:08 437.200
UWE-3 24 Jul 08:02:11 08:05:13 19° 93° (E) 08:08:12 435.000/436.395/437.385
KAITUO 1B 24 Jul 08:03:02 08:05:43 19° 291° (WNW) 08:08:25 145.475/437.950
XW-2F 24 Jul 08:18:15 08:19:21 11° 295° (WNW) 08:20:29 145.980 - 146.000
ZACube-1 24 Jul 08:18:43 08:21:18 16° 92° (E) 08:23:50 437.345
SO-50 24 Jul 08:33:43 08:36:00 14° 320° (NW) 08:38:18 436.795
AAUSAT CUBESAT 2 24 Jul 08:34:16 08:38:17 45° 99° (E) 08:42:18 437.432
CUBEBUG 2 24 Jul 08:37:21 08:41:38 90° 109° (ESE) 08:45:48 437.445
Oscar 11 24 Jul 08:46:08 08:49:34 23° 94° (E) 08:53:00 .
YUBILEINY 24 Jul 08:50:32 08:53:01 11° 287° (WNW) 08:55:31 435.215
AO-73 24 Jul 08:58:29 09:02:25 40° 98° (E) 09:06:18 145.935
FO-29 24 Jul 09:00:22 09:07:41 55° 70° (ENE) 09:15:19 435.910
TIGRISAT 24 Jul 09:03:35 09:07:09 22° 67° (ENE) 09:10:40 435.000
CUTE 1.7 + AOD 2 24 Jul 09:09:31 09:12:40 20° 292° (WNW) 09:15:48 437.475
SEEDS 24 Jul 09:23:38 09:26:53 22° 292° (WNW) 09:30:09 437.485
XW-2A 24 Jul 09:25:00 09:26:50 14° 292° (WNW) 09:28:40 145.665 - 145.685
HO-68 24 Jul 09:33:44 09:39:52 32° 298° (WNW) 09:45:59 435.675
UWE-3 24 Jul 09:38:00 09:41:44 31° 290° (WNW) 09:45:24 435.000/436.395/437.385
M-CUBED/EXP-1 PRIME 24 Jul 09:38:54 09:42:03 29° 64° (ENE) 09:45:26 437.505
DELFI C3 24 Jul 09:46:20 09:49:43 25° 96° (E) 09:53:04 145.870
ZACube-1 24 Jul 09:53:52 09:57:44 38° 288° (WNW) 10:01:33 437.345
UNISAT 6 24 Jul 09:54:16 09:58:56 82° 78° (ENE) 10:03:33 437.425
PRISM 24 Jul 10:09:55 10:13:58 76° 256° (WSW) 10:18:07 437.425
AAUSAT CUBESAT 2 24 Jul 10:11:00 10:13:20 15° 294° (WNW) 10:15:41 437.432
Oscar 11 24 Jul 10:21:58 10:25:41 29° 290° (WNW) 10:29:25 .
AIST 2D 24 Jul 10:24:01 10:26:08 16° 68° (ENE) 10:28:16 435.315
EO-88 24 Jul 10:27:39 10:31:12 49° 100° (E) 10:34:44 145.990 - 145.960
POLYITAN 1 24 Jul 10:32:37 10:34:03 12° 63° (ENE) 10:35:29 437.675
AO-73 24 Jul 10:35:49 10:38:18 16° 294° (WNW) 10:40:46 145.935
TIGRISAT 24 Jul 10:39:19 10:43:36 36° 263° (W) 10:47:51 435.000
QB50P2 24 Jul 10:44:06 10:46:52 17° 66° (ENE) 10:49:39 145.880/145.840
FO-29 24 Jul 10:46:20 10:52:54 32° 267° (W) 10:59:46 435.910
NO-84 24 Jul 10:49:26 10:52:00 27° 128° (SE) 10:54:44 435.350 FM
EO-79 24 Jul 10:55:59 10:59:10 21° 67° (ENE) 11:02:22 145.935-145.965
NANOSAT C BR1 24 Jul 10:56:50 10:59:51 19° 67° (ENE) 11:02:52 145.865
M-CUBED/EXP-1 PRIME 24 Jul 11:14:03 11:16:34 18° 262° (W) 11:19:12 437.505
ESTCUBE 1 24 Jul 11:19:44 11:22:50 18° 93° (E) 11:25:57 437.505/2401.250
DELFI C3 24 Jul 11:21:10 11:24:21 23° 291° (WNW) 11:27:30 145.870
AIST 2D 24 Jul 11:56:05 11:59:06 27° 263° (W) 12:02:08 435.315
EO-88 24 Jul 12:03:45 12:04:25 10° 295° (WNW) 12:05:04 145.990 - 145.960
DUCHIFAT 1 24 Jul 12:03:49 12:08:04 84° 257° (WSW) 12:12:20 145.980
POLYITAN 1 24 Jul 12:05:01 12:09:16 65° 258° (WSW) 12:13:31 437.675
BEESAT 3 24 Jul 12:05:45 12:08:37 19° 111° (ESE) 12:11:31 437.485
LO-87 24 Jul 12:08:16 12:11:52 66° 283° (WNW) 12:15:24 145.935 - 145.965
VELOX 1 24 Jul 12:10:09 12:12:14 13° 91° (E) 12:14:18 145.980
Oscar 19 24 Jul 12:15:39 12:19:04 18° 63° (ENE) 12:22:29 437.125/150
QB50P2 24 Jul 12:18:17 12:22:19 41° 261° (W) 12:26:22 145.880/145.840
AO-85 24 Jul 12:23:50 12:27:24 31° 115° (ESE) 12:30:53 145.980
NO-84 24 Jul 12:26:45 12:29:25 25° 328° (NNW) 12:32:15 435.350 FM
EO-79 24 Jul 12:30:53 12:34:43 32° 263° (W) 12:38:35 145.935-145.965
NANOSAT C BR1 24 Jul 12:31:23 12:35:17 35° 262° (W) 12:39:13 145.865
Gurwin Techsat 1B 24 Jul 12:34:45 12:38:19 19° 63° (ENE) 12:41:53 435.225
BUGSAT 1 24 Jul 12:36:02 12:40:13 63° 75° (ENE) 12:44:25 437.445
BEESAT 2 24 Jul 12:43:58 12:46:29 16° 110° (ESE) 12:49:03 435.950
AO-7 24 Jul 12:49:52 12:50:43 10° 42° (NE) 12:51:35 .
PCSat 24 Jul 12:53:35 12:56:15 14° 41° (NE) 12:58:53 145.827
ESTCUBE 1 24 Jul 12:55:33 12:59:47 41° 289° (WNW) 13:04:01 437.505/2401.250
SPROUT 24 Jul 13:05:43 13:09:59 66° 101° (ESE) 13:14:12 437.525
50 SAT 24 Jul 13:18:59 13:22:00 28° 97° (E) 13:25:01 437.505
BEESAT 3 24 Jul 13:42:14 13:45:56 36° 308° (NW) 13:49:41 437.485
VELOX 1 24 Jul 13:44:37 13:49:00 55° 287° (WNW) 13:53:20 145.980
RS-15 24 Jul 13:48:52 13:53:52 13° 94° (E) 13:58:53 29.354- 29.394
DX 1 24 Jul 13:52:37 13:56:56 53° 100° (E) 14:01:12 434.975-435.025
Oscar 19 24 Jul 13:52:56 13:57:55 54° 259° (W) 14:02:57 437.125/150
AO-85 24 Jul 14:04:38 14:07:47 22° 311° (NW) 14:10:55 145.980
ITAMSAT 1 24 Jul 14:05:51 14:08:52 16° 61° (ENE) 14:11:55 435.822/435.867
Gurwin Techsat 1B 24 Jul 14:12:33 14:17:46 58° 259° (W) 14:23:02 435.225
BUGSAT 1 24 Jul 14:15:11 14:15:56 10° 270° (W) 14:16:41 437.445
BEESAT 2 24 Jul 14:20:05 14:23:52 41° 306° (NW) 14:27:44 435.950
AO-7 24 Jul 14:33:32 14:41:24 48° 63° (ENE) 14:49:18 .
PCSat 24 Jul 14:35:07 14:40:34 76° 60° (ENE) 14:45:59 145.827
UKube-1 24 Jul 14:36:50 14:41:11 74° 286° (WNW) 14:45:29 .
SPROUT 24 Jul 14:44:03 14:45:18 11° 297° (WNW) 14:46:32 437.525
50 SAT 24 Jul 14:52:28 14:54:28 15° 293° (WNW) 14:56:29 437.505
SO-50 24 Jul 15:22:15 15:26:45 61° 56° (NE) 15:31:17 436.795
O/OREOS (USA 219) 24 Jul 15:23:11 15:27:36 62° 109° (ESE) 15:32:02 437.305
MOZHAYETS 4 24 Jul 15:23:43 15:27:27 25° 95° (E) 15:31:11
DX 1 24 Jul 15:30:15 15:32:39 15° 296° (WNW) 15:35:02 434.975-435.025
ITAMSAT 1 24 Jul 15:42:33 15:47:44 68° 258° (WSW) 15:52:59 435.822/435.867
RS-15 24 Jul 15:51:52 16:03:49 67° 114° (ESE) 16:15:59 29.354- 29.394
BEESAT 24 Jul 15:53:14 15:57:59 69° 102° (ESE) 16:02:42 436.000
CUBESAT XI-V 24 Jul 15:58:35 15:59:42 11° 89° (E) 16:00:49 437.345
ITUPSAT 1 24 Jul 16:05:59 16:10:46 90° 185° (S) 16:15:31 437.325
PCSat 24 Jul 16:20:40 16:23:15 14° 257° (WSW) 16:25:50 145.827
AO-7 24 Jul 16:26:35 16:34:13 39° 261° (W) 16:41:55 .
DOVE 4 24 Jul 16:36:15 16:40:13 25° 66° (ENE) 16:44:20 437.250
MOZHAYETS 4 24 Jul 17:00:37 17:04:35 30° 291° (WNW) 17:08:33
SO-50 24 Jul 17:04:22 17:06:42 14° 251° (WSW) 17:09:02 436.795
O/OREOS (USA 219) 24 Jul 17:05:07 17:07:27 14° 306° (NW) 17:09:46 437.305
LilacSat-2 24 Jul 17:07:27 17:09:47 16° 67° (ENE) 17:12:06 437.200
KAITUO 1B 24 Jul 17:09:47 17:11:04 12° 66° (ENE) 17:12:23 145.475/437.950
NO-84 24 Jul 17:22:35 17:25:41 23° 31° (NNE) 17:28:56 435.350 FM
XW-2F 24 Jul 17:22:38 17:25:28 21° 69° (ENE) 17:28:20 145.980 - 146.000
CUTE-I 24 Jul 17:25:58 17:30:35 30° 67° (ENE) 17:35:14 437.470
CUBESAT XI-V 24 Jul 17:32:52 17:37:31 72° 285° (WNW) 17:42:11 437.345
BEESAT 24 Jul 17:32:57 17:35:10 13° 298° (WNW) 17:37:22 436.000
KKS-1 24 Jul 17:45:42 17:50:12 84° 102° (ESE) 17:54:40 437.445
ITUPSAT 1 24 Jul 17:47:35 17:47:49 10° 301° (WNW) 17:48:02 437.325
XW-2D 24 Jul 17:50:00 17:53:38 50° 74° (ENE) 17:57:17 145.860 - 145.880
YUBILEINY 24 Jul 17:54:04 18:01:13 29° 83° (E) 18:08:22 435.215
XW-2B 24 Jul 17:59:57 18:03:40 66° 76° (ENE) 18:07:24 145.730 - 145.750
RS-15 24 Jul 18:05:38 18:17:06 43° 318° (NW) 18:28:40 29.354- 29.394
DOVE 4 24 Jul 18:13:12 18:17:39 36° 264° (W) 18:22:21 437.250
HO-68 24 Jul 18:13:36 18:19:54 34° 63° (ENE) 18:26:12 435.675
STARS 24 Jul 18:17:13 18:21:39 77° 103° (ESE) 18:26:01 437.465
XW-2C 24 Jul 18:17:15 18:20:59 71° 259° (WSW) 18:24:44 145.795 - 145.815
CUTE 1.7 + AOD 2 24 Jul 18:25:31 18:28:41 21° 68° (ENE) 18:31:53 437.475
NUDT-PHONESAT 24 Jul 18:27:26 18:31:05 72° 259° (W) 18:34:46 437.300
SEEDS 24 Jul 18:39:07 18:42:03 19° 67° (ENE) 18:44:59 437.485
LilacSat-2 24 Jul 18:40:21 18:43:47 33° 263° (W) 18:47:12 437.200
KAITUO 1B 24 Jul 18:41:07 18:44:39 45° 261° (W) 18:48:12 145.475/437.950
XW-2F 24 Jul 18:56:26 18:59:28 23° 264° (W) 19:02:32 145.980 - 146.000
UWE-3 24 Jul 18:58:34 19:01:29 17° 66° (ENE) 19:04:22 435.000/436.395/437.385
NO-84 24 Jul 18:59:31 19:03:25 59° 227° (SW) 19:07:33 435.350 FM
CUTE-I 24 Jul 19:05:41 19:10:31 34° 263° (W) 19:15:22 437.470
ZACube-1 24 Jul 19:14:26 19:16:34 13° 65° (ENE) 19:18:40 437.345
AAUSAT CUBESAT 2 24 Jul 19:23:43 19:27:10 27° 70° (ENE) 19:30:38 437.432
CUBEBUG 2 24 Jul 19:33:41 19:38:22 67° 75° (ENE) 19:42:58 437.445
Oscar 11 24 Jul 19:40:49 19:43:35 17° 66° (ENE) 19:46:20 .
YUBILEINY 24 Jul 19:48:42 19:57:23 60° 282° (WNW) 20:06:07 435.215
AO-73 24 Jul 19:52:58 19:56:50 30° 70° (ENE) 20:00:38 145.935
XW-2A 24 Jul 19:53:49 19:57:06 47° 261° (W) 20:00:23 145.665 - 145.685
STARS 24 Jul 19:56:34 19:57:19 10° 299° (WNW) 19:58:04 437.465
HO-68 24 Jul 20:00:34 20:07:23 46° 260° (W) 20:14:15 435.675
CUTE 1.7 + AOD 2 24 Jul 20:00:39 20:04:20 30° 264° (W) 20:08:03 437.475
ISS 24 Jul 20:04:35 20:06:45 17° 131° (SE) 20:08:54 437.550
STRAND 1 24 Jul 20:08:14 20:13:20 66° 102° (ESE) 20:18:23 437.568
SEEDS 24 Jul 20:13:43 20:17:28 33° 263° (W) 20:21:17 437.485
BEESAT 3 24 Jul 20:23:33 20:25:08 12° 41° (NE) 20:26:41 437.485
RS-15 24 Jul 20:25:30 20:34:16 21° 351° (N) 20:42:55 29.354- 29.394
DELFI C3 24 Jul 20:32:07 20:34:09 14° 66° (ENE) 20:36:12 145.870
Tancredo 1 24 Jul 20:33:04 20:36:00 77° 323° (NW) 20:38:57 437.200
UWE-3 24 Jul 20:33:08 20:37:34 47° 261° (W) 20:41:55 435.000/436.395/437.385
nSIGHT-1 24 Jul 20:46:04 20:49:11 47° 138° (SE) 20:52:19 .
ZACube-1 24 Jul 20:47:58 20:52:22 58° 260° (W) 20:56:42 437.345
AO-85 24 Jul 20:54:50 20:58:21 25° 50° (NE) 21:02:01 145.980
AAUSAT CUBESAT 2 24 Jul 20:59:19 21:02:35 23° 265° (W) 21:05:51 437.432
BEESAT 2 24 Jul 21:02:35 21:03:45 11° 40° (NE) 21:04:56 435.950
EO-88 24 Jul 21:05:13 21:07:51 19° 69° (ENE) 21:10:29 145.990 - 145.960
CUBEBUG 2 24 Jul 21:13:40 21:15:21 12° 270° (W) 21:17:01 437.445
Oscar 11 24 Jul 21:15:18 21:19:22 41° 262° (W) 21:23:27 .
AO-73 24 Jul 21:29:30 21:33:02 23° 265° (W) 21:36:31 145.935
ISS 24 Jul 21:39:47 21:42:57 49° 327° (NNW) 21:46:07 437.550
UNISAT 6 24 Jul 21:47:57 21:50:47 17° 92° (E) 21:53:34 437.425
STRAND 1 24 Jul 21:49:01 21:51:56 16° 298° (WNW) 21:54:51 437.568
PRISM 24 Jul 21:53:05 21:55:33 15° 93° (E) 21:58:01 437.425
YUBILEINY 24 Jul 21:54:28 21:56:19 11° 304° (NW) 21:58:10 435.215
FO-29 24 Jul 21:56:54 22:03:46 49° 97° (E) 22:09:48 435.910
BEESAT 3 24 Jul 21:59:14 22:03:15 81° 237° (WSW) 22:07:10 437.485
DELFI C3 24 Jul 22:04:47 22:08:31 43° 261° (W) 22:12:19 145.870
Tancredo 1 24 Jul 22:10:07 22:11:49 14° 341° (NNW) 22:13:31 437.200
ESTCUBE 1 24 Jul 22:19:07 22:21:48 16° 64° (ENE) 22:24:30 437.505/2401.250
nSIGHT-1 24 Jul 22:23:04 22:25:44 23° 335° (NNW) 22:28:23 .
TIGRISAT 24 Jul 22:31:17 22:35:28 47° 99° (E) 22:39:34 435.000
AO-85 24 Jul 22:34:52 22:38:46 34° 244° (WSW) 22:42:53 145.980
BEESAT 2 24 Jul 22:38:03 22:42:08 87° 51° (NE) 22:46:09 435.950
EO-88 24 Jul 22:38:21 22:41:22 24° 264° (W) 22:44:24 145.990 - 145.960
RS-15 24 Jul 22:42:36 22:52:40 28° 27° (NNE) 23:02:21 29.354- 29.394
LO-87 24 Jul 22:43:12 22:46:37 39° 73° (ENE) 22:50:03 145.935 - 145.965
M-CUBED/EXP-1 PRIME 24 Jul 22:51:18 22:55:21 29° 101° (E) 22:59:24 437.505
VELOX 1 24 Jul 23:07:39 23:09:07 11° 62° (ENE) 23:10:36 145.980
